FW6831 Weather Reports


time (UTC)temp
C
wind
direction
speed
KPH
gust
KPH
rain 1hr
cm
rain 24hr
cm
rain mn
cm
humidity
%
barometer
mb
20260510000049 20 0 0.0 0.0 0.00 0.00 0.00 74 1027.2
20260509235543 20 0 0.0 0.0 0.00 0.00 0.00 74 1027.3
20260509235043 20 0 0.0 3.2 0.00 0.00 0.00 74 1027.4
20260509234550 20 0 0.0 3.2 0.00 0.00 0.00 73 1027.3
20260509234044 20 0 0.0 0.0 0.00 0.00 0.00 73 1027.3
20260509233546 20 0 0.0 0.0 0.00 0.00 0.00 73 1027.2
20260509233051 20 0 0.0 0.0 0.00 0.00 0.00 75 1027.4
20260509232547 19 0 0.0 0.0 0.00 0.00 0.00 77 1027.3
20260509232042 19 0 0.0 0.0 0.00 0.00 0.00 76 1027.4
20260509231549 19 0 0.0 0.0 0.00 0.00 0.00 74 1027.4
20260509231043 19 0 0.0 0.0 0.00 0.00 0.00 75 1027.3
20260509230543 18 0 0.0 0.0 0.00 0.00 0.00 77 1027.1
20260509230057 18 0 0.0 0.0 0.00 0.00 0.00 76 1027.0
20260509225544 18 0 0.0 0.0 0.00 0.00 0.00 77 1026.9
20260509225048 18 0 0.0 0.0 0.00 0.00 0.00 78 1026.9
20260509224555 17 0 0.0 0.0 0.00 0.00 0.00 77 1026.9
20260509224047 18 0 0.0 0.0 0.00 0.00 0.00 76 1026.9
20260509223544 17 0 0.0 0.0 0.00 0.00 0.00 78 1026.9
20260509223054 17 0 0.0 0.0 0.00 0.00 0.00 79 1026.8
20260509222545 17 0 0.0 0.0 0.00 0.00 0.00 78 1026.8
20260509222043 17 0 0.0 0.0 0.00 0.00 0.00 77 1026.7
20260509221547 17 0 0.0 0.0 0.00 0.00 0.00 79 1026.7
20260509221043 17 0 0.0 0.0 0.00 0.00 0.00 80 1026.6
20260509220543 16 0 0.0 0.0 0.00 0.00 0.00 82 1026.4
20260509220049 16 0 0.0 0.0 0.00 0.00 0.00 85 1026.5
20260509215543 16 0 0.0 0.0 0.00 0.00 0.00 85 1026.3
20260509215043 16 0 0.0 0.0 0.00 0.00 0.00 85 1026.3
20260509214558 15 0 0.0 0.0 0.00 0.00 0.00 90 1026.3
20260509214042 14 0 0.0 0.0 0.00 0.00 0.00 92 1026.3
20260509213543 13 0 0.0 0.0 0.00 0.00 0.00 95 1026.2
20260509213104 12 0 0.0 0.0 0.00 0.00 0.00 95 1026.2
20260509212542 12 0 0.0 0.0 0.00 0.00 0.00 95 1026.1
20260509212043 11 0 0.0 0.0 0.00 0.00 0.00 95 1026.2
20260509211553 11 0 0.0 0.0 0.00 0.00 0.00 96 1026.1
20260509211044 11 0 0.0 0.0 0.00 0.00 0.00 96 1026.1
20260509210543 10 0 0.0 0.0 0.00 0.00 0.00 95 1026.1
20260509210106 10 0 0.0 0.0 0.00 0.00 0.00 95 1025.9
20260509205542 10 0 0.0 0.0 0.00 0.00 0.00 95 1025.8
20260509205042 10 0 0.0 0.0 0.00 0.00 0.00 95 1025.6
20260509204555 10 0 0.0 0.0 0.00 0.00 0.00 95 1025.6
20260509204044 10 0 0.0 0.0 0.00 0.00 0.00 95 1025.6
20260509203543 10 0 0.0 0.0 0.00 0.00 0.00 95 1025.3
20260509203054 10 0 0.0 0.0 0.00 0.00 0.00 94 1025.3
20260509202543 10 0 0.0 0.0 0.00 0.00 0.00 94 1025.2
20260509202044 10 0 0.0 0.0 0.00 0.00 0.00 94 1025.1
20260509201559 10 0 0.0 0.0 0.00 0.00 0.00 94 1025.0
20260509201045 10 0 0.0 0.0 0.00 0.00 0.00 94 1025.1
20260509200543 10 0 0.0 0.0 0.00 0.00 0.00 94 1025.0
20260509200105 10 0 0.0 0.0 0.00 0.00 0.00 94 1024.9
20260509195547 10 0 0.0 0.0 0.00 0.00 0.00 94 1024.9
20260509195050 10 0 0.0 0.0 0.00 0.00 0.00 94 1024.8
20260509194555 10 0 0.0 0.0 0.00 0.00 0.00 94 1024.9
20260509194047 10 0 0.0 0.0 0.00 0.00 0.00 94 1024.9
20260509193546 11 0 0.0 0.0 0.00 0.00 0.00 94 1024.9
20260509193055 11 0 0.0 0.0 0.00 0.00 0.00 94 1024.8
20260509192549 11 0 0.0 0.0 0.00 0.00 0.00 94 1024.9
20260509192044 11 0 0.0 0.0 0.00 0.00 0.00 94 1024.8
20260509191551 11 0 0.0 0.0 0.00 0.00 0.00 94 1024.6
20260509191045 11 0 0.0 0.0 0.00 0.00 0.00 94 1024.7
20260509190545 11 0 0.0 0.0 0.00 0.00 0.00 94 1024.6
20260509190054 11 0 0.0 0.0 0.00 0.00 0.00 94 1024.6
20260509185544 11 0 0.0 0.0 0.00 0.00 0.00 94 1024.5
20260509185045 11 0 0.0 0.0 0.00 0.00 0.00 94 1024.5
20260509184554 11 0 0.0 0.0 0.00 0.00 0.00 94 1024.5
20260509184046 11 0 0.0 0.0 0.00 0.00 0.00 95 1024.5
20260509183545 11 0 0.0 0.0 0.00 0.00 0.00 95 1024.5
20260509183053 11 0 0.0 0.0 0.00 0.00 0.00 95 1024.5
20260509182543 11 0 0.0 0.0 0.00 0.00 0.00 95 1024.5
20260509182044 11 0 0.0 0.0 0.00 0.00 0.00 95 1024.5
20260509181558 11 0 0.0 0.0 0.00 0.00 0.00 95 1024.5
20260509181045 11 0 0.0 0.0 0.00 0.00 0.00 95 1024.4
20260509180545 11 0 0.0 0.0 0.00 0.00 0.00 95 1024.5
20260509180054 11 0 0.0 0.0 0.00 0.00 0.00 95 1024.5
20260509175543 10 0 0.0 0.0 0.00 0.00 0.00 95 1024.4
20260509175043 10 0 0.0 0.0 0.00 0.00 0.00 95 1024.4
20260509174559 10 0 0.0 0.0 0.00 0.00 0.00 95 1024.4
20260509174044 10 0 0.0 0.0 0.00 0.00 0.00 94 1024.3
20260509173545 10 0 0.0 0.0 0.00 0.00 0.00 94 1024.4
20260509173056 10 0 0.0 0.0 0.00 0.00 0.00 94 1024.3
20260509172545 10 0 0.0 0.0 0.00 0.00 0.00 94 1024.3
20260509172049 10 0 0.0 0.0 0.00 0.00 0.00 94 1024.3
20260509171551 10 0 0.0 0.0 0.00 0.00 0.00 94 1024.2
20260509171044 10 0 0.0 0.0 0.00 0.00 0.00 94 1024.1
20260509170545 10 0 0.0 0.0 0.00 0.00 0.00 94 1024.2
20260509170055 10 0 0.0 0.0 0.00 0.00 0.00 94 1024.3
20260509165615 11 0 0.0 0.0 0.00 0.00 0.00 94 1024.2
20260509165043 11 0 0.0 0.0 0.00 0.00 0.00 94 1024.3
20260509164553 11 0 0.0 0.0 0.00 0.00 0.00 94 1024.4
20260509164043 11 0 0.0 0.0 0.00 0.00 0.00 94 1024.4
20260509163543 11 0 0.0 0.0 0.00 0.00 0.00 93 1024.4
20260509163054 11 0 0.0 0.0 0.00 0.00 0.00 93 1024.5
20260509162546 11 0 0.0 0.0 0.00 0.00 0.00 93 1024.4
20260509162043 11 0 0.0 0.0 0.00 0.00 0.00 93 1024.5
20260509161552 11 0 0.0 0.0 0.00 0.00 0.00 92 1024.4
20260509161044 11 0 0.0 0.0 0.00 0.00 0.00 93 1024.5
20260509160541 11 0 0.0 0.0 0.00 0.00 0.00 93 1024.4
20260509160048 11 0 0.0 0.0 0.00 0.00 0.00 93 1024.5
20260509155543 11 0 0.0 0.0 0.00 0.00 0.00 92 1024.4
20260509155043 11 0 0.0 0.0 0.00 0.00 0.00 93 1024.4
20260509154556 11 0 0.0 0.0 0.00 0.00 0.00 92 1024.5
20260509154047 11 0 0.0 0.0 0.00 0.00 0.00 92 1024.5
20260509153543 12 0 0.0 0.0 0.00 0.00 0.00 92 1024.6
20260509153102 12 0 0.0 0.0 0.00 0.00 0.00 92 1024.5
20260509152543 12 0 0.0 0.0 0.00 0.00 0.00 93 1024.7
20260509152044 12 0 0.0 0.0 0.00 0.00 0.00 93 1024.6
20260509151555 12 0 0.0 0.0 0.00 0.00 0.00 94 1024.6
20260509151041 12 0 0.0 0.0 0.00 0.00 0.00 94 1024.6
20260509150543 12 0 0.0 0.0 0.00 0.00 0.00 94 1024.7
20260509150048 12 0 0.0 0.0 0.00 0.00 0.00 94 1024.5
20260509145544 12 0 0.0 0.0 0.00 0.00 0.00 94 1024.5
20260509145043 11 0 0.0 1.6 0.00 0.00 0.00 94 1024.5
20260509144559 11 0 0.0 1.6 0.00 0.00 0.00 94 1024.6
20260509144043 11 0 0.0 1.6 0.00 0.00 0.00 94 1024.5
20260509143547 11 0 0.0 1.6 0.00 0.00 0.00 93 1024.6
20260509143054 11 319 1.6 1.6 0.00 0.00 0.00 93 1024.5
20260509142542 11 307 1.6 1.6 0.00 0.00 0.00 93 1024.5
20260509142043 12 0 0.0 0.0 0.00 0.00 0.00 94 1024.5
20260509141556 12 0 0.0 1.6 0.00 0.00 0.00 94 1024.5
20260509141044 12 0 0.0 1.6 0.00 0.00 0.00 94 1024.5
20260509140545 12 307 0.0 1.6 0.00 0.00 0.00 94 1024.4
20260509135543 11 0 0.0 1.6 0.00 0.00 0.00 94 1024.5
20260509135044 11 307 1.6 1.6 0.00 0.00 0.00 94 1024.7
20260509134558 11 307 0.0 1.6 0.00 0.00 0.00 94 1024.5
20260509134044 11 311 0.0 1.6 0.00 0.00 0.00 94 1024.6
20260509133546 11 311 1.6 1.6 0.00 0.00 0.00 93 1024.6
20260509133053 11 310 1.6 1.6 0.00 0.00 0.00 93 1024.7
20260509132544 11 311 1.6 3.2 0.00 0.00 0.00 93 1024.7
20260509132044 12 310 1.6 3.2 0.00 0.00 0.00 93 1024.8
20260509131551 12 312 1.6 1.6 0.00 0.00 0.00 93 1024.9
20260509131044 12 312 1.6 1.6 0.00 0.00 0.00 93 1024.8
20260509130545 11 312 0.0 1.6 0.00 0.00 0.00 93 1024.9
20260509130051 11 312 0.0 1.6 0.00 0.00 0.00 93 1024.9
20260509125544 11 314 1.6 1.6 0.00 0.00 0.00 92 1024.8
20260509125044 11 309 1.6 1.6 0.00 0.00 0.00 92 1024.8
20260509124546 12 308 1.6 1.6 0.00 0.00 0.00 92 1024.8
20260509124045 12 311 1.6 1.6 0.00 0.00 0.00 92 1024.8
20260509123544 12 311 0.0 1.6 0.00 0.00 0.00 92 1024.8
20260509123050 12 311 1.6 1.6 0.00 0.00 0.00 91 1024.8
20260509122545 12 315 0.0 1.6 0.00 0.00 0.00 91 1024.9
20260509122045 12 315 0.0 1.6 0.00 0.00 0.00 91 1024.8
20260509121556 12 315 0.0 1.6 0.00 0.00 0.00 91 1024.8
20260509121048 12 309 0.0 1.6 0.00 0.00 0.00 91 1024.8
20260509120547 12 309 0.0 0.0 0.00 0.00 0.00 91 1024.8
20260509120105 12 0 0.0 1.6 0.00 0.00 0.00 91 1024.7
20260509115545 12 309 0.0 1.6 0.00 0.00 0.00 91 1024.8
20260509115044 12 309 1.6 1.6 0.00 0.00 0.00 91 1024.8
20260509114551 12 307 0.0 1.6 0.00 0.00 0.00 90 1024.9
20260509114045 12 306 0.0 1.6 0.00 0.00 0.00 90 1024.9
20260509113543 12 306 0.0 1.6 0.00 0.00 0.00 90 1024.9
20260509113054 12 306 0.0 1.6 0.00 0.00 0.00 90 1024.9
20260509112544 12 0 0.0 1.6 0.00 0.00 0.00 90 1024.7
20260509112044 12 315 0.0 1.6 0.00 0.00 0.00 90 1024.8
20260509111551 12 0 0.0 1.6 0.00 0.00 0.00 89 1024.8
20260509111044 12 314 0.0 1.6 0.00 0.00 0.00 89 1024.9
20260509110543 12 309 0.0 1.6 0.00 0.00 0.00 89 1024.8
20260509110054 12 0 0.0 1.6 0.00 0.00 0.00 89 1024.8
20260509105544 12 312 0.0 1.6 0.00 0.00 0.00 89 1024.9
20260509105044 13 0 0.0 1.6 0.00 0.00 0.00 88 1024.8
20260509104552 13 0 0.0 1.6 0.00 0.00 0.00 88 1024.9
20260509104045 13 311 0.0 1.6 0.00 0.00 0.00 88 1024.7
20260509103543 13 311 0.0 1.6 0.00 0.00 0.00 87 1024.8
20260509103104 13 309 0.0 1.6 0.00 0.00 0.00 87 1024.8
20260509102545 13 0 0.0 1.6 0.00 0.00 0.00 87 1024.6
20260509102045 13 309 0.0 1.6 0.00 0.00 0.00 87 1024.7
20260509101559 13 0 0.0 1.6 0.00 0.00 0.00 87 1024.6
20260509101044 13 307 0.0 1.6 0.00 0.00 0.00 86 1024.6
20260509100544 13 0 0.0 1.6 0.00 0.00 0.00 86 1024.7
20260509100057 13 304 0.0 1.6 0.00 0.00 0.00 86 1024.6
20260509095544 13 0 0.0 1.6 0.00 0.00 0.00 85 1024.6
20260509095043 13 307 0.0 1.6 0.00 0.00 0.00 85 1024.5
20260509094600 14 0 0.0 1.6 0.00 0.00 0.00 84 1024.4
20260509094044 14 305 0.0 1.6 0.00 0.00 0.00 84 1024.5
20260509093542 14 0 0.0 1.6 0.00 0.00 0.00 83 1024.3
20260509093048 14 0 0.0 0.0 0.00 0.00 0.00 83 1024.3
20260509092546 14 0 0.0 0.0 0.00 0.00 0.00 82 1024.2
20260509092044 15 0 0.0 1.6 0.00 0.00 0.00 81 1024.2
20260509091630 15 0 0.0 1.6 0.00 0.00 0.00 82 1024.2
20260509091044 15 0 0.0 1.6 0.00 0.00 0.00 82 1024.2
20260509090547 15 0 0.0 1.6 0.00 0.00 0.00 81 1024.2
20260509090051 15 0 0.0 0.0 0.00 0.00 0.00 81 1024.0
20260509085544 15 0 0.0 0.0 0.00 0.00 0.00 80 1024.0
20260509085047 15 0 0.0 0.0 0.00 0.00 0.00 80 1024.0
20260509084554 15 0 0.0 0.0 0.00 0.00 0.00 79 1023.8
20260509084042 16 0 0.0 0.0 0.00 0.00 0.00 78 1023.8
20260509083544 16 0 0.0 0.0 0.00 0.00 0.00 77 1023.7
20260509083057 16 0 0.0 0.0 0.00 0.00 0.00 76 1023.6
20260509082544 16 0 0.0 0.0 0.00 0.00 0.00 75 1023.6
20260509082049 17 0 0.0 0.0 0.00 0.00 0.00 73 1023.4
20260509081552 17 0 0.0 0.0 0.00 0.00 0.00 71 1023.3
20260509081044 17 0 0.0 0.0 0.00 0.00 0.00 70 1023.4
20260509080544 17 0 0.0 0.0 0.00 0.00 0.00 69 1023.3
20260509080106 17 0 0.0 0.0 0.00 0.00 0.00 69 1023.1
20260509075544 18 0 0.0 0.0 0.00 0.00 0.00 68 1023.2
20260509075044 18 0 0.0 0.0 0.00 0.00 0.00 68 1023.1
20260509074554 18 0 0.0 1.6 0.00 0.00 0.00 67 1023.1
20260509074044 18 0 0.0 1.6 0.00 0.00 0.00 67 1023.1
20260509073544 18 0 0.0 1.6 0.00 0.00 0.00 66 1023.1
20260509073124 19 0 0.0 3.2 0.00 0.00 0.00 65 1023.0
20260509072550 19 0 0.0 3.2 0.00 0.00 0.00 64 1023.1
20260509072044 20 81 0.0 3.2 0.00 0.00 0.00 63 1022.9
20260509071548 20 101 0.0 6.4 0.00 0.00 0.00 61 1022.9
20260509071044 20 51 0.0 6.4 0.00 0.00 0.00 61 1023.0
20260509070544 20 89 3.2 6.4 0.00 0.00 0.00 60 1022.8
20260509070054 20 143 1.6 6.4 0.00 0.00 0.00 60 1022.7
20260509065542 20 93 3.2 6.4 0.00 0.00 0.00 59 1022.6
20260509065043 21 64 1.6 6.4 0.00 0.00 0.00 60 1022.6
20260509064548 21 0 1.6 8.0 0.00 0.00 0.00 59 1022.4
20260509064049 21 98 3.2 9.7 0.00 0.00 0.00 58 1022.5
20260509063543 21 72 0.0 9.7 0.00 0.00 0.00 58 1022.3
20260509063047 21 91 0.0 4.8 0.00 0.00 0.00 59 1022.3
20260509062544 21 358 0.0 6.4 0.00 0.00 0.00 58 1022.3
20260509062047 21 110 1.6 8.0 0.00 0.00 0.00 57 1022.2
20260509061557 21 126 0.0 8.0 0.00 0.00 0.00 58 1022.1
20260509061044 21 63 1.6 8.0 0.00 0.00 0.00 58 1022.1
20260509060544 21 135 1.6 4.8 0.00 0.00 0.00 57 1022.0
20260509060100 22 58 0.0 4.8 0.00 0.00 0.00 56 1022.0
20260509055544 22 138 1.6 8.0 0.00 0.00 0.00 55 1021.9
20260509055048 22 166 3.2 8.0 0.00 0.00 0.00 56 1021.9
20260509054609 22 172 4.8 8.0 0.00 0.00 0.00 56 1021.9
20260509054044 22 25 0.0 6.4 0.00 0.00 0.00 55 1021.9
20260509053544 22 109 1.6 8.0 0.00 0.00 0.00 54 1021.8
20260509053051 22 132 3.2 8.0 0.00 0.00 0.00 55 1021.8
20260509052543 22 158 1.6 11.3 0.00 0.00 0.00 55 1021.9
20260509052044 22 179 4.8 11.3 0.00 0.00 0.00 55 1021.9
20260509051556 22 101 4.8 11.3 0.00 0.00 0.00 55 1021.8
20260509051045 22 0 0.0 6.4 0.00 0.00 0.00 55 1021.8
20260509050544 22 86 3.2 6.4 0.00 0.00 0.00 55 1021.8
20260509050056 22 168 3.2 12.9 0.00 0.00 0.00 55 1021.8
20260509045544 22 155 3.2 12.9 0.00 0.00 0.00 54 1021.7
20260509045044 22 165 3.2 11.3 0.00 0.00 0.00 54 1021.7
20260509044554 23 178 4.8 9.7 0.00 0.00 0.00 54 1021.7
20260509044044 23 342 3.2 11.3 0.00 0.00 0.00 54 1021.7
20260509043545 23 78 1.6 12.9 0.00 0.00 0.00 56 1021.7
20260509043052 22 76 6.4 12.9 0.00 0.00 0.00 55 1021.7
20260509042548 23 94 4.8 11.3 0.00 0.00 0.00 55 1021.7
20260509042044 22 53 1.6 9.7 0.00 0.00 0.00 55 1021.8
20260509041553 22 111 1.6 9.7 0.00 0.00 0.00 56 1021.8
20260509041044 22 166 1.6 8.0 0.00 0.00 0.00 56 1021.8
20260509040544 22 39 3.2 8.0 0.00 0.00 0.00 55 1021.8
20260509040124 22 176 3.2 8.0 0.00 0.00 0.00 55 1021.8
20260509035544 22 149 3.2 8.0 0.00 0.00 0.00 55 1021.8
20260509035047 22 238 1.6 11.3 0.00 0.00 0.00 57 1021.7
20260509034556 22 112 3.2 11.3 0.00 0.00 0.00 56 1021.8
20260509034044 22 167 3.2 9.7 0.00 0.00 0.00 56 1021.8
20260509033546 22 172 1.6 8.0 0.00 0.00 0.00 55 1021.8
20260509033054 22 189 1.6 8.0 0.00 0.00 0.00 58 1021.9
20260509032544 22 176 1.6 8.0 0.00 0.00 0.00 57 1022.0
20260509032047 22 101 1.6 8.0 0.00 0.00 0.00 57 1022.0
20260509031600 22 205 1.6 8.0 0.00 0.00 0.00 58 1022.0
20260509031043 22 194 3.2 9.7 0.00 0.00 0.00 58 1022.1
20260509030544 22 0 3.2 11.3 0.00 0.00 0.00 58 1022.1
20260509030058 22 214 4.8 11.3 0.00 0.00 0.00 58 1022.1
20260509025546 22 198 1.6 4.8 0.00 0.00 0.00 57 1022.1
20260509025046 22 298 1.6 9.7 0.00 0.00 0.00 58 1022.2
20260509024555 22 106 3.2 9.7 0.00 0.00 0.00 59 1022.2
20260509024044 22 142 3.2 8.0 0.00 0.00 0.00 60 1022.3
20260509023548 22 120 0.0 9.7 0.00 0.00 0.00 59 1022.4
20260509023056 21 0 1.6 9.7 0.00 0.00 0.00 60 1022.4
20260509022544 22 193 3.2 8.0 0.00 0.00 0.00 59 1022.5
20260509022044 22 197 0.0 8.0 0.00 0.00 0.00 59 1022.7
20260509021548 22 345 1.6 8.0 0.00 0.00 0.00 59 1022.7
20260509021043 22 190 3.2 8.0 0.00 0.00 0.00 59 1022.8
20260509020541 21 143 3.2 9.7 0.00 0.00 0.00 58 1023.0
20260509020048 21 93 3.2 9.7 0.00 0.00 0.00 59 1023.1
20260509015545 21 115 1.6 8.0 0.00 0.00 0.00 59 1023.1
20260509015045 21 199 1.6 9.7 0.00 0.00 0.00 59 1023.0
20260509014550 21 171 1.6 9.7 0.00 0.00 0.00 58 1023.1
20260509014044 21 176 4.8 9.7 0.00 0.00 0.00 58 1023.3
20260509013544 21 0 1.6 8.0 0.00 0.00 0.00 59 1023.4
20260509013051 21 180 0.0 4.8 0.00 0.00 0.00 60 1023.4
20260509012544 20 0 0.0 0.0 0.00 0.00 0.00 59 1023.6
20260509012043 20 0 0.0 0.0 0.00 0.00 0.00 60 1023.6
20260509011558 20 0 0.0 0.0 0.00 0.00 0.00 61 1023.5
20260509011044 20 0 0.0 0.0 0.00 0.00 0.00 61 1023.7
20260509010542 19 0 0.0 3.2 0.00 0.00 0.00 61 1023.6
20260509010050 19 0 0.0 3.2 0.00 0.00 0.00 62 1023.8
20260509005544 19 0 0.0 4.8 0.00 0.00 0.00 61 1023.7
20260509005043 19 0 1.6 4.8 0.00 0.00 0.00 62 1023.8
20260509004606 19 0 0.0 0.0 0.00 0.00 0.00 63 1023.7
20260509004044 18 0 0.0 0.0 0.00 0.00 0.00 62 1023.7
20260509003544 18 0 0.0 0.0 0.00 0.00 0.00 64 1023.7
20260509003048 18 0 0.0 0.0 0.00 0.00 0.00 64 1023.7
20260509002544 18 0 0.0 0.0 0.00 0.00 0.00 63 1023.9
20260509002044 18 0 0.0 0.0 0.00 0.00 0.00 63 1023.9
20260509001550 18 0 0.0 0.0 0.00 0.00 0.00 64 1024.0
20260509001044 17 0 0.0 1.6 0.00 0.00 0.00 64 1024.0
20260509000541 17 0 0.0 4.8 0.00 0.00 0.00 63 1024.0